When you browse on this site, cookies collect data to enhance your experience and personalize the content and advertising you see.
Visit our Privacy Policy to learn more. By continuing to use the site, you agree to this use of cookies and data.
EN

Hourly Weather Jambol

Today, 6 July, Monday

Time Temperature Precipitation Wind Pressure Humidity
00:00 +24°C° 0.1 mm 3 mps 746 mmHg 78%
01:00 +24°C° 0.1 mm 3 mps 746 mmHg 79%
02:00 +22°C° 0 mm 3 mps 746 mmHg 74%
03:00 +22°C° 0 mm 3 mps 746 mmHg 77%
04:00 +23°C° 0 mm 2 mps 745 mmHg 79%
05:00 +21°C° 0 mm 2 mps 745 mmHg 82%
06:00 +24°C° 0 mm 3 mps 745 mmHg 76%
07:00 +26°C° 0 mm 3 mps 745 mmHg 71%
08:00 +27°C° 0 mm 4 mps 745 mmHg 66%
09:00 +29°C° 0 mm 4 mps 745 mmHg 62%
10:00 +30°C° 0 mm 5 mps 745 mmHg 57%
11:00 +33°C° 0 mm 5 mps 744 mmHg 53%
12:00 +33°C° 0 mm 5 mps 744 mmHg 51%
13:00 +34°C° 0 mm 5 mps 744 mmHg 49%
14:00 +34°C° 0 mm 5 mps 744 mmHg 48%
15:00 +34°C° 0 mm 5 mps 743 mmHg 49%
16:00 +34°C° 0 mm 5 mps 743 mmHg 51%
17:00 +33°C° 0 mm 5 mps 742 mmHg 53%
18:00 +30°C° 0 mm 4 mps 742 mmHg 60%
19:00 +29°C° 0 mm 3 mps 742 mmHg 66%
20:00 +27°C° 0 mm 2 mps 742 mmHg 73%
21:00 +26°C° 0 mm 2 mps 742 mmHg 75%
22:00 +25°C° 0 mm 2 mps 742 mmHg 76%
23:00 +24°C° 0 mm 1 mps 742 mmHg 78%

Tomorrow, 7 July, Tuesday

Time Temperature Precipitation Wind Pressure Humidity
00:00 +24°C° 0 mm 1 mps 742 mmHg 78%
01:00 +24°C° 0 mm 2 mps 742 mmHg 78%
02:00 +24°C° 0 mm 2 mps 742 mmHg 78%
03:00 +23°C° 0 mm 1 mps 742 mmHg 79%
04:00 +23°C° 0 mm 1 mps 742 mmHg 79%
05:00 +23°C° 0 mm 1 mps 741 mmHg 80%
06:00 +25°C° 0 mm 2 mps 742 mmHg 74%
07:00 +27°C° 0 mm 2 mps 742 mmHg 67%
08:00 +28°C° 0 mm 2 mps 743 mmHg 61%
09:00 +30°C° 0 mm 3 mps 743 mmHg 57%
10:00 +31°C° 0 mm 3 mps 743 mmHg 52%
11:00 +34°C° 0 mm 4 mps 743 mmHg 48%
12:00 +33°C° 0 mm 5 mps 743 mmHg 50%
13:00 +33°C° 0 mm 5 mps 743 mmHg 51%
14:00 +33°C° 0 mm 6 mps 743 mmHg 53%
15:00 +32°C° 0 mm 6 mps 743 mmHg 53%
16:00 +30°C° 0 mm 6 mps 743 mmHg 54%
17:00 +29°C° 0 mm 6 mps 743 mmHg 54%
18:00 +27°C° 0 mm 5 mps 744 mmHg 58%
19:00 +25°C° 0 mm 5 mps 745 mmHg 61%
20:00 +22°C° 0 mm 4 mps 745 mmHg 65%
21:00 +21°C° 0 mm 4 mps 746 mmHg 66%
22:00 +20°C° 0 mm 3 mps 747 mmHg 68%
23:00 +19°C° 0 mm 2 mps 748 mmHg 69%

Day after tomorrow, 8 July, Wednesday

Time Temperature Precipitation Wind Pressure Humidity
00:00 +19°C° 0 mm 2 mps 748 mmHg 70%
01:00 +18°C° 0 mm 3 mps 749 mmHg 71%
02:00 +18°C° 0 mm 3 mps 749 mmHg 72%
03:00 +17°C° 0 mm 3 mps 749 mmHg 73%
04:00 +17°C° 0 mm 2 mps 750 mmHg 75%
05:00 +16°C° 0 mm 2 mps 750 mmHg 77%
06:00 +18°C° 0 mm 3 mps 750 mmHg 70%
07:00 +19°C° 0 mm 4 mps 751 mmHg 63%
08:00 +20°C° 0 mm 4 mps 751 mmHg 56%
09:00 +21°C° 0 mm 4 mps 751 mmHg 53%
10:00 +23°C° 0 mm 4 mps 752 mmHg 50%
11:00 +25°C° 0 mm 4 mps 752 mmHg 46%
12:00 +26°C° 0 mm 4 mps 752 mmHg 46%
13:00 +26°C° 0 mm 4 mps 751 mmHg 45%
14:00 +27°C° 0 mm 4 mps 751 mmHg 45%
15:00 +27°C° 0 mm 4 mps 751 mmHg 46%
16:00 +27°C° 0 mm 4 mps 751 mmHg 47%
17:00 +26°C° 0 mm 4 mps 751 mmHg 49%
18:00 +25°C° 0 mm 3 mps 751 mmHg 54%
19:00 +22°C° 0 mm 3 mps 751 mmHg 60%
20:00 +21°C° 0 mm 2 mps 752 mmHg 66%
21:00 +20°C° 0 mm 2 mps 752 mmHg 68%
22:00 +20°C° 0 mm 1 mps 752 mmHg 71%
23:00 +19°C° 0 mm 1 mps 752 mmHg 73%

9 July, Thursday

Time Temperature Precipitation Wind Pressure Humidity
00:00 +18°C° 0 mm 1 mps 752 mmHg 75%
01:00 +18°C° 0 mm 1 mps 752 mmHg 76%
02:00 +16°C° 0 mm 0 mps 752 mmHg 78%
03:00 +15°C° 0 mm 0 mps 752 mmHg 79%
04:00 +16°C° 0 mm 1 mps 752 mmHg 80%
05:00 +16°C° 0 mm 1 mps 752 mmHg 82%
06:00 +19°C° 0 mm 1 mps 753 mmHg 73%
07:00 +21°C° 0 mm 1 mps 753 mmHg 65%
08:00 +24°C° 0 mm 1 mps 753 mmHg 57%
09:00 +25°C° 0 mm 1 mps 753 mmHg 50%
10:00 +26°C° 0 mm 2 mps 753 mmHg 44%
11:00 +28°C° 0 mm 2 mps 753 mmHg 37%
12:00 +29°C° 0 mm 2 mps 753 mmHg 36%
13:00 +29°C° 0 mm 3 mps 752 mmHg 35%
14:00 +30°C° 0 mm 3 mps 752 mmHg 33%
15:00 +30°C° 0 mm 3 mps 752 mmHg 35%
16:00 +29°C° 0 mm 3 mps 752 mmHg 37%
17:00 +29°C° 0 mm 3 mps 752 mmHg 39%
18:00 +27°C° 0 mm 3 mps 752 mmHg 47%
19:00 +25°C° 0 mm 3 mps 752 mmHg 55%
20:00 +21°C° 0 mm 2 mps 752 mmHg 63%
21:00 +21°C° 0 mm 2 mps 752 mmHg 68%
22:00 +21°C° 0 mm 1 mps 753 mmHg 72%
23:00 +20°C° 0 mm 1 mps 753 mmHg 76%

10 July, Friday

Time Temperature Precipitation Wind Pressure Humidity
00:00 +20°C° 0 mm 1 mps 753 mmHg 77%
01:00 +19°C° 0 mm 1 mps 753 mmHg 78%
02:00 +19°C° 0 mm 1 mps 752 mmHg 79%
03:00 +19°C° 0 mm 1 mps 752 mmHg 79%
04:00 +19°C° 0 mm 1 mps 752 mmHg 79%
05:00 +19°C° 0 mm 1 mps 752 mmHg 79%
06:00 +21°C° 0 mm 1 mps 753 mmHg 72%
07:00 +23°C° 0 mm 2 mps 753 mmHg 65%
08:00 +25°C° 0 mm 2 mps 753 mmHg 58%
09:00 +27°C° 0 mm 3 mps 753 mmHg 54%
10:00 +28°C° 0 mm 4 mps 753 mmHg 51%
11:00 +29°C° 0 mm 5 mps 753 mmHg 47%
12:00 +29°C° 0 mm 5 mps 753 mmHg 45%
13:00 +30°C° 0 mm 6 mps 752 mmHg 43%
14:00 +30°C° 0 mm 6 mps 752 mmHg 41%
15:00 +30°C° 0 mm 6 mps 752 mmHg 44%
16:00 +29°C° 0 mm 6 mps 752 mmHg 46%
17:00 +29°C° 0 mm 6 mps 752 mmHg 49%
18:00 +27°C° 0 mm 5 mps 752 mmHg 56%
19:00 +25°C° 0 mm 4 mps 752 mmHg 63%
20:00 +22°C° 0 mm 3 mps 752 mmHg 70%
21:00 +21°C° 0 mm 3 mps 752 mmHg 73%
22:00 +21°C° 0 mm 2 mps 752 mmHg 75%
23:00 +20°C° 0 mm 2 mps 753 mmHg 78%

11 July, Saturday

Time Temperature Precipitation Wind Pressure Humidity
00:00 +19°C° 0 mm 2 mps 752 mmHg 80%
01:00 +19°C° 0 mm 2 mps 752 mmHg 82%
02:00 +19°C° 0 mm 2 mps 752 mmHg 84%
03:00 +19°C° 0 mm 2 mps 752 mmHg 85%
04:00 +19°C° 0 mm 1 mps 751 mmHg 86%
05:00 +19°C° 0 mm 1 mps 751 mmHg 87%
06:00 +20°C° 0 mm 2 mps 751 mmHg 80%
07:00 +23°C° 0 mm 2 mps 751 mmHg 73%
08:00 +25°C° 0 mm 3 mps 751 mmHg 66%
09:00 +27°C° 0 mm 4 mps 751 mmHg 61%
10:00 +28°C° 0 mm 4 mps 751 mmHg 56%
11:00 +29°C° 0 mm 5 mps 751 mmHg 51%
12:00 +30°C° 0 mm 5 mps 751 mmHg 48%
13:00 +30°C° 0 mm 5 mps 751 mmHg 46%
14:00 +32°C° 0 mm 5 mps 750 mmHg 44%
15:00 +30°C° 0 mm 5 mps 750 mmHg 45%
16:00 +30°C° 0 mm 5 mps 750 mmHg 45%
17:00 +30°C° 0 mm 5 mps 749 mmHg 46%
18:00 +28°C° 0 mm 4 mps 749 mmHg 55%
19:00 +26°C° 0 mm 3 mps 749 mmHg 64%
20:00 +24°C° 0 mm 3 mps 749 mmHg 73%
21:00 +23°C° 0 mm 2 mps 749 mmHg 79%
22:00 +21°C° 0 mm 2 mps 749 mmHg 85%
23:00 +21°C° 0 mm 1 mps 750 mmHg 91%
Show more